0:00:00, $GPGGA,0,3249.21468,N,12354.75213,W,1,11,0.8,13.87,M,-40.66,M,*64
0:00:30, $GPGGA,30,3249.22508,N,12354.76106,W,1,11,0.8,13.87,M,-40.66,M,*67
0:01:00, $GPGGA,100,3249.23548,N,12354.77243,W,1,11,0.8,15.15,M,-40.66,M,*6E
0:01:30, $GPGGA,130,3249.24627,N,12354.78421,W,1,11,0.8,14.46,M,-40.66,M,*6A
0:02:00, $GPGGA,200,3249.25637,N,12354.79615,W,1,11,0.8,14.34,M,-40.66,M,*6B
0:02:30, $GPGGA,230,3249.26726,N,12354.80716,W,1,11,0.8,14.33,M,-40.66,M,*69
0:03:00, $GPGGA,300,3249.27679,N,12354.81992,W,1,11,0.8,15.21,M,-40.66,M,*60
0:03:30, $GPGGA,331,3249.28702,N,12354.83558,W,1,11,0.8,16.19,M,-40.66,M,*60
0:04:00, $GPGGA,401,3249.2982,N,12354.85087,W,1,11,0.8,14.19,M,-40.66,M,*69
0:04:30, $GPGGA,431,3249.31014,N,12354.86335,W,1,11,0.8,14.89,M,-40.66,M,*6C
0:05:00, $GPGGA,501,3249.32272,N,12354.87246,W,1,11,0.8,13.99,M,-40.66,M,*6D
0:05:30, $GPGGA,531,3249.33321,N,12354.88109,W,1,11,0.8,14.12,M,-40.66,M,*6B
0:06:00, $GPGGA,601,3249.3422,N,12354.89173,W,1,11,0.8,13.66,M,-40.66,M,*64
0:06:30, $GPGGA,631,3249.34899,N,12354.90607,W,1,11,0.8,12.88,M,-40.66,M,*62
0:07:00, $GPGGA,701,3249.35257,N,12354.92279,W,1,11,0.8,15.61,M,-40.66,M,*66
0:07:30, $GPGGA,731,3249.36023,N,12354.93839,W,1,11,0.8,15.16,M,-40.66,M,*68
0:08:00, $GPGGA,801,3249.37124,N,12354.94969,W,1,11,0.8,14.75,M,-40.66,M,*64
0:08:30, $GPGGA,831,3249.38322,N,12354.96111,W,1,11,0.8,14.51,M,-40.66,M,*6F
0:09:00, $GPGGA,901,3249.39424,N,12354.97344,W,1,11,0.8,14.37,M,-40.66,M,*6E
0:09:30, $GPGGA,931,3249.40431,N,12354.98668,W,1,11,0.8,12.59,M,-40.66,M,*6D
0:10:00, $GPGGA,1001,3249.41214,N,12355.00028,W,1,11,0.8,14.06,M,-40.66,M,*68
0:10:30, $GPGGA,1031,3249.41859,N,12355.01279,W,1,11,0.8,13.79,M,-40.66,M,*60
0:11:00, $GPGGA,1101,3249.42528,N,12355.022,W,1,11,0.8,14.73,M,-40.66,M,*6A
0:11:30, $GPGGA,1131,3249.43247,N,12355.03211,W,1,11,0.8,13.85,M,-40.66,M,*69
0:12:00, $GPGGA,1201,3249.44068,N,12355.04427,W,1,11,0.8,14.61,M,-40.66,M,*68
0:12:30, $GPGGA,1231,3249.4482,N,12355.06067,W,1,11,0.8,14.14,M,-40.66,M,*6F
0:13:00, $GPGGA,1301,3249.45823,N,12355.07435,W,1,11,0.8,13.3,M,-40.66,M,*6C
0:13:30, $GPGGA,1331,3249.47019,N,12355.08493,W,1,11,0.8,14.65,M,-40.66,M,*68
0:14:00, $GPGGA,1401,3249.48224,N,12355.09608,W,1,11,0.8,13.65,M,-40.66,M,*69
0:14:30, $GPGGA,1431,3249.49418,N,12355.10934,W,1,11,0.8,13.88,M,-40.66,M,*69
0:15:00, $GPGGA,1501,3249.50449,N,12355.12469,W,1,11,0.8,13.46,M,-40.66,M,*62
0:15:30, $GPGGA,1531,3249.50878,N,12355.14305,W,1,11,0.8,12.09,M,-40.66,M,*6E
0:16:00, $GPGGA,1601,3249.51091,N,12355.1601,W,1,11,0.8,14.26,M,-40.66,M,*6E
0:16:30, $GPGGA,1631,3249.51628,N,12355.17264,W,1,11,0.8,13.03,M,-40.66,M,*69
0:17:00, $GPGGA,1701,3249.52391,N,12355.18271,W,1,10,1.1,10.97,M,-40.66,M,*63
0:17:30, $GPGGA,1731,3249.53498,N,12355.19072,W,1,10,1.1,9.93,M,-40.66,M,*53
0:18:00, $GPGGA,1801,3249.5474,N,12355.19985,W,1,10,1.1,9.57,M,-40.66,M,*57
0:18:30, $GPGGA,1831,3249.55875,N,12355.21066,W,1,10,1.1,10.12,M,-40.66,M,*6A
0:19:00, $GPGGA,1901,3249.5685,N,12355.22485,W,1,10,1.1,10.2,M,-40.66,M,*67
0:19:30, $GPGGA,1931,3249.57658,N,12355.24203,W,1,10,1.1,9.78,M,-40.66,M,*58
0:20:00, $GPGGA,2001,3249.58348,N,12355.25789,W,1,10,1.1,9.51,M,-40.66,M,*57
0:20:30, $GPGGA,2031,3249.58843,N,12355.27064,W,1,10,1.1,8.44,M,-40.66,M,*57
0:21:00, $GPGGA,2101,3249.59365,N,12355.28263,W,1,10,1.1,9.67,M,-40.66,M,*51
0:21:30, $GPGGA,2131,3249.60059,N,12355.2927,W,1,10,1.1,11.04,M,-40.66,M,*6B
0:22:00, $GPGGA,2201,3249.60633,N,12355.30234,W,1,10,1.1,9.82,M,-40.66,M,*5E
0:22:30, $GPGGA,2231,3249.6109,N,12355.31185,W,1,10,1.1,9.8,M,-40.66,M,*59
0:23:00, $GPGGA,2301,3249.61643,N,12355.32505,W,1,10,1.1,9.4,M,-40.66,M,*50
0:23:30, $GPGGA,2331,3249.62353,N,12355.33979,W,1,10,1.1,9.03,M,-40.66,M,*55
0:24:00, $GPGGA,2401,3249.63183,N,12355.35656,W,1,10,1.1,9.85,M,-40.66,M,*55
0:24:30, $GPGGA,2431,3249.64042,N,12355.37358,W,1,10,1.1,8.74,M,-40.66,M,*5B
0:25:00, $GPGGA,2501,3249.64857,N,12355.39023,W,1,11,1,9.17,M,-40.66,M,*50
0:25:30, $GPGGA,2531,3249.65713,N,12355.40256,W,1,11,1,11.25,M,-40.66,M,*6B
0:26:00, $GPGGA,2601,3249.66653,N,12355.41077,W,1,11,1,10.41,M,-40.66,M,*6E
0:26:30, $GPGGA,2631,3249.67795,N,12355.41563,W,1,11,1,10.51,M,-40.66,M,*66
0:27:00, $GPGGA,2701,3249.69328,N,12355.42081,W,1,11,1,10.66,M,-40.66,M,*66
0:27:30, $GPGGA,2731,3249.71097,N,12355.42514,W,1,12,1,7.86,M,-40.66,M,*59
0:28:00, $GPGGA,2801,3249.72831,N,12355.42794,W,1,11,1,9.72,M,-40.66,M,*5E
0:28:30, $GPGGA,2831,3249.74999,N,12355.42671,W,1,11,1,11.29,M,-40.66,M,*65
0:29:00, $GPGGA,2901,3249.77905,N,12355.42811,W,1,11,1,9.72,M,-40.66,M,*5E
0:29:30, $GPGGA,2931,3249.81581,N,12355.42837,W,1,11,1,10.34,M,-40.66,M,*6A
0:30:00, $GPGGA,3001,3249.86926,N,12355.43283,W,1,11,1,8.57,M,-40.66,M,*5F
0:30:30, $GPGGA,3031,3249.93901,N,12355.44129,W,1,11,1,8.21,M,-40.66,M,*58
0:31:00, $GPGGA,3101,3250.0186,N,12355.44973,W,1,11,1,9.41,M,-40.66,M,*5F
0:31:30, $GPGGA,3131,3250.10173,N,12355.45906,W,1,11,1,9.84,M,-40.66,M,*5D
0:32:00, $GPGGA,3201,3250.1869,N,12355.46855,W,1,11,1,10.48,M,-40.66,M,*63
0:32:30, $GPGGA,3231,3250.27147,N,12355.47807,W,1,11,1,8.8,M,-40.66,M,*5A
0:33:00, $GPGGA,3301,3250.35252,N,12355.4873,W,1,11,1,9.11,M,-40.66,M,*51
0:33:30, $GPGGA,3331,3250.4303,N,12355.49694,W,1,11,1,9.73,M,-40.66,M,*5F
0:34:00, $GPGGA,3400,3250.50634,N,12355.50661,W,1,11,1,9.73,M,-40.66,M,*58
0:34:30, $GPGGA,3430,3250.58268,N,12355.53756,W,1,12,1,10.43,M,-40.66,M,*60
0:35:00, $GPGGA,3500,3250.65982,N,12355.57211,W,1,11,1,11.4,M,-40.66,M,*60
0:35:30, $GPGGA,3530,3250.73157,N,12355.6194,W,1,11,1,10.64,M,-40.66,M,*69
0:36:00, $GPGGA,3600,3250.80635,N,12355.66819,W,1,11,1,9.69,M,-40.66,M,*59
0:36:30, $GPGGA,3630,3250.88106,N,12355.71631,W,1,11,1,9.74,M,-40.66,M,*5B
0:37:00, $GPGGA,3700,3250.95619,N,12355.76456,W,1,11,1,8.95,M,-40.66,M,*56
0:37:30, $GPGGA,3730,3251.02948,N,12355.81702,W,1,11,1,9.64,M,-40.66,M,*54
0:38:00, $GPGGA,3800,3251.1025,N,12355.87416,W,1,11,1,10.16,M,-40.66,M,*64
0:38:30, $GPGGA,3830,3251.17531,N,12355.9284,W,1,10,1,10.94,M,-40.66,M,*60
0:39:00, $GPGGA,3900,3251.24942,N,12355.97956,W,1,10,1,8.91,M,-40.66,M,*55
0:39:30, $GPGGA,3930,3251.32461,N,12356.03169,W,1,10,1,10.12,M,-40.66,M,*65
0:40:00, $GPGGA,4000,3251.40023,N,12356.08501,W,1,10,1,9.25,M,-40.66,M,*52
0:40:30, $GPGGA,4030,3251.47481,N,12356.13718,W,1,10,1,11.89,M,-40.66,M,*65
0:41:00, $GPGGA,4100,3251.54912,N,12356.18824,W,1,10,1,10.85,M,-40.66,M,*64
0:41:30, $GPGGA,4130,3251.62369,N,12356.24038,W,1,10,1,8.86,M,-40.66,M,*54
0:42:00, $GPGGA,4200,3251.69911,N,12356.29343,W,1,10,1,9.56,M,-40.66,M,*54
0:42:30, $GPGGA,4230,3251.7748,N,12356.34638,W,1,10,1,9.87,M,-40.66,M,*54
0:43:00, $GPGGA,4300,3251.8491,N,12356.39789,W,1,10,1,11.32,M,-40.66,M,*6F
0:43:30, $GPGGA,4330,3251.92497,N,12356.45038,W,1,10,1,8.94,M,-40.66,M,*5B
0:44:00, $GPGGA,4401,3252.00213,N,12356.50374,W,1,10,1,8,M,-40.66,M,*5E
0:44:30, $GPGGA,4431,3252.07651,N,12356.55472,W,1,10,1,10.21,M,-40.66,M,*66
0:45:00, $GPGGA,4501,3252.15179,N,12356.60571,W,1,10,1,10.02,M,-40.66,M,*6F
0:45:30, $GPGGA,4531,3252.2257,N,12356.6563,W,1,10,1,8.41,M,-40.66,M,*58
0:46:00, $GPGGA,4601,3252.29893,N,12356.70621,W,1,10,1,10.71,M,-40.66,M,*6D
0:46:30, $GPGGA,4631,3252.37353,N,12356.75714,W,1,10,1,10.69,M,-40.66,M,*6D
0:47:00, $GPGGA,4701,3252.4495,N,12356.80746,W,1,10,1,10.81,M,-40.66,M,*69
0:47:30, $GPGGA,4731,3252.52579,N,12356.85825,W,1,10,1,10.81,M,-40.66,M,*65
0:48:00, $GPGGA,4801,3252.60133,N,12356.90748,W,1,10,1,10.09,M,-40.66,M,*62
0:48:30, $GPGGA,4831,3252.67682,N,12356.95775,W,1,10,1,9.87,M,-40.66,M,*5E
0:49:00, $GPGGA,4901,3252.75124,N,12357.00783,W,1,10,1,8.85,M,-40.66,M,*53
0:49:30, $GPGGA,4931,3252.82514,N,12357.05678,W,1,10,1,11.13,M,-40.66,M,*68
0:50:00, $GPGGA,5001,3252.90007,N,12357.10519,W,1,10,1,10.2,M,-40.66,M,*66
0:50:30, $GPGGA,5031,3252.97407,N,12357.15863,W,1,10,1,9.87,M,-40.66,M,*56
0:51:00, $GPGGA,5101,3253.04762,N,12357.21457,W,1,10,1,9.25,M,-40.66,M,*5B
0:51:30, $GPGGA,5131,3253.11825,N,12357.27082,W,1,10,1,11.7,M,-40.66,M,*63
0:52:00, $GPGGA,5201,3253.18862,N,12357.32489,W,1,10,1,10.71,M,-40.66,M,*62
0:52:30, $GPGGA,5231,3253.26053,N,12357.3814,W,1,10,1,10.77,M,-40.66,M,*6A
0:53:00, $GPGGA,5301,3253.33344,N,12357.43714,W,1,10,1,10,M,-40.66,M,*62
0:53:30, $GPGGA,5331,3253.40722,N,12357.49434,W,1,10,1,11.09,M,-40.66,M,*62
0:54:00, $GPGGA,5401,3253.48046,N,12357.55107,W,1,10,1,10.23,M,-40.66,M,*6A
0:54:30, $GPGGA,5431,3253.55299,N,12357.60773,W,1,10,1,10.75,M,-40.66,M,*65
0:55:00, $GPGGA,5501,3253.62657,N,12357.66446,W,1,10,1,9.22,M,-40.66,M,*5C
0:55:30, $GPGGA,5531,3253.69823,N,12357.72086,W,1,10,1,9.82,M,-40.66,M,*5E
0:56:00, $GPGGA,5601,3253.77106,N,12357.77748,W,1,10,1,9.53,M,-40.66,M,*53
0:56:30, $GPGGA,5631,3253.84518,N,12357.83407,W,1,10,1,9.43,M,-40.66,M,*55
0:57:00, $GPGGA,5701,3253.91915,N,12357.88973,W,1,10,1,11,M,-40.66,M,*69
0:57:30, $GPGGA,5731,3253.99335,N,12357.94623,W,1,10,1,10.53,M,-40.66,M,*6A
0:58:00, $GPGGA,5801,3254.06628,N,12358.0037,W,1,10,1,10.7,M,-40.66,M,*6E
0:58:30, $GPGGA,5831,3254.13931,N,12358.05919,W,1,11,0.9,11.81,M,-40.66,M,*68
0:59:00, $GPGGA,5901,3254.2108,N,12358.11375,W,1,11,0.9,9.89,M,-40.66,M,*5C
0:59:30, $GPGGA,5931,3254.28239,N,12358.16867,W,1,11,0.9,10.68,M,-40.66,M,*6E
1:00:00, $GPGGA,10001,3254.35405,N,12358.2256,W,1,11,0.9,8.44,M,-40.66,M,*5F
1:00:30, $GPGGA,10031,3254.42303,N,12358.27886,W,1,11,0.9,9.01,M,-40.66,M,*5D
1:01:00, $GPGGA,10101,3254.49509,N,12358.3334,W,1,11,0.9,10.11,M,-40.66,M,*65
1:01:30, $GPGGA,10131,3254.56878,N,12358.38986,W,1,11,0.9,9.59,M,-40.66,M,*5C
1:02:00, $GPGGA,10201,3254.64246,N,12358.44624,W,1,11,0.9,9.37,M,-40.66,M,*5E
1:02:30, $GPGGA,10231,3254.71571,N,12358.50174,W,1,11,0.9,10.19,M,-40.66,M,*69
1:03:00, $GPGGA,10301,3254.78828,N,12358.55776,W,1,11,0.9,9.56,M,-40.66,M,*51
1:03:30, $GPGGA,10331,3254.86098,N,12358.61354,W,1,11,0.9,9.78,M,-40.66,M,*5F
1:04:00, $GPGGA,10401,3254.93544,N,12358.66939,W,1,11,0.9,9.92,M,-40.66,M,*59
1:04:30, $GPGGA,10431,3255.01002,N,12358.72569,W,1,11,0.9,8.89,M,-40.66,M,*50
1:05:00, $GPGGA,10501,3255.08141,N,12358.78139,W,1,11,0.9,10.79,M,-40.66,M,*60
1:05:30, $GPGGA,10531,3255.15465,N,12358.83553,W,1,11,0.9,8.87,M,-40.66,M,*58
1:06:00, $GPGGA,10601,3255.22583,N,12358.8892,W,1,11,0.9,9.17,M,-40.66,M,*5E
1:06:30, $GPGGA,10631,3255.29807,N,12358.9433,W,1,11,0.9,9.1,M,-40.66,M,*56
1:07:00, $GPGGA,10701,3255.37131,N,12358.99848,W,1,11,0.9,9.28,M,-40.66,M,*55
1:07:30, $GPGGA,10731,3255.44263,N,12359.05246,W,1,11,0.9,9.47,M,-40.66,M,*5F
1:08:00, $GPGGA,10801,3255.51488,N,12359.1063,W,1,11,0.9,10.57,M,-40.66,M,*6C
1:08:30, $GPGGA,10831,3255.58876,N,12359.15979,W,1,11,0.9,10.15,M,-40.66,M,*6A
1:09:00, $GPGGA,10901,3255.66276,N,12359.21533,W,1,11,0.9,10.59,M,-40.66,M,*62
1:09:30, $GPGGA,10931,3255.73773,N,12359.27056,W,1,11,0.9,10.3,M,-40.66,M,*6A
1:10:00, $GPGGA,11001,3255.80977,N,12359.32395,W,1,11,0.9,8.78,M,-40.66,M,*5A
1:10:30, $GPGGA,11031,3255.88083,N,12359.37806,W,1,11,0.9,10.53,M,-40.66,M,*67
1:11:00, $GPGGA,11101,3255.95265,N,12359.43203,W,1,11,0.9,9.77,M,-40.66,M,*51
1:11:30, $GPGGA,11131,3256.02629,N,12359.48608,W,1,11,0.9,8.55,M,-40.66,M,*56
1:12:00, $GPGGA,11201,3256.09842,N,12359.53924,W,1,11,0.9,9.31,M,-40.66,M,*56
1:12:30, $GPGGA,11231,3256.16668,N,12359.59224,W,1,11,0.9,11.88,M,-40.66,M,*67
1:13:00, $GPGGA,11301,3256.23738,N,12359.64411,W,1,11,0.9,9.45,M,-40.66,M,*51
1:13:30, $GPGGA,11331,3256.30974,N,12359.69782,W,1,11,0.9,9.5,M,-40.66,M,*56
1:14:00, $GPGGA,11400,3256.38034,N,12359.74987,W,1,11,0.9,9.7,M,-40.66,M,*53
1:14:30, $GPGGA,11430,3256.4513,N,12359.80198,W,1,11,0.9,11.12,M,-40.66,M,*6F
1:15:00, $GPGGA,11500,3256.52174,N,12359.85306,W,1,10,1,8.77,M,-40.66,M,*59
1:15:30, $GPGGA,11530,3256.59253,N,12359.90673,W,1,10,1,10.99,M,-40.66,M,*6D
1:16:00, $GPGGA,11600,3256.66483,N,12359.95917,W,1,9,1.1,10.61,M,-40.66,M,*6C
1:16:30, $GPGGA,11630,3256.73797,N,12400.01308,W,1,9,1.1,8.18,M,-40.66,M,*58
1:17:00, $GPGGA,11700,3256.81141,N,12400.06644,W,1,10,1,10.43,M,-40.66,M,*6E
1:17:30, $GPGGA,11730,3256.88472,N,12400.12141,W,1,10,1,8.29,M,-40.66,M,*53
1:18:00, $GPGGA,11800,3256.95599,N,12400.17275,W,1,10,1,10.72,M,-40.66,M,*61
1:18:30, $GPGGA,11830,3257.02673,N,12400.22467,W,1,10,1,9.84,M,-40.66,M,*58
1:19:00, $GPGGA,11900,3257.09809,N,12400.27764,W,1,10,1,9.81,M,-40.66,M,*52
1:19:30, $GPGGA,11930,3257.16983,N,12400.33052,W,1,10,1,10.44,M,-40.66,M,*6A
1:20:00, $GPGGA,12000,3257.24197,N,12400.38296,W,1,10,1,9.94,M,-40.66,M,*5B
1:20:30, $GPGGA,12030,3257.31438,N,12400.43577,W,1,10,1,10.86,M,-40.66,M,*63
1:21:00, $GPGGA,12100,3257.38649,N,12400.48847,W,1,10,1,10.27,M,-40.66,M,*62
1:21:30, $GPGGA,12130,3257.45767,N,12400.54194,W,1,10,1,9.39,M,-40.66,M,*5B
1:22:00, $GPGGA,12200,3257.52737,N,12400.59121,W,1,10,1,11.93,M,-40.66,M,*62
1:22:30, $GPGGA,12230,3257.5977,N,12400.64216,W,1,10,1,9.72,M,-40.66,M,*56
1:23:00, $GPGGA,12300,3257.67003,N,12400.69384,W,1,10,1,9.72,M,-40.66,M,*5D
1:23:30, $GPGGA,12330,3257.74091,N,12400.74496,W,1,10,1,11.08,M,-40.66,M,*6B
1:24:00, $GPGGA,12401,3257.8149,N,12400.79917,W,1,10,1,11.89,M,-40.66,M,*61
1:24:30, $GPGGA,12431,3257.88693,N,12400.85037,W,1,10,1,9.08,M,-40.66,M,*52
1:25:00, $GPGGA,12501,3257.95797,N,12400.90127,W,1,10,1,11.11,M,-40.66,M,*6C
1:25:30, $GPGGA,12531,3258.02931,N,12400.95238,W,1,10,1,9.65,M,-40.66,M,*5E
1:26:00, $GPGGA,12601,3258.09977,N,12401.00282,W,1,10,1,10.44,M,-40.66,M,*60
1:26:30, $GPGGA,12631,3258.16955,N,12401.05318,W,1,10,1,11.61,M,-40.66,M,*6C
1:27:00, $GPGGA,12701,3258.24127,N,12401.10499,W,1,10,1,9.89,M,-40.66,M,*57
1:27:30, $GPGGA,12731,3258.31225,N,12401.15585,W,1,10,1,9.94,M,-40.66,M,*54
1:28:00, $GPGGA,12801,3258.38299,N,12401.20638,W,1,10,1,9.67,M,-40.66,M,*59
1:28:30, $GPGGA,12831,3258.45508,N,12401.25815,W,1,10,1,11.17,M,-40.66,M,*65
1:29:00, $GPGGA,12901,3258.52781,N,12401.30994,W,1,10,1,9.33,M,-40.66,M,*51
1:29:30, $GPGGA,12931,3258.59902,N,12401.36097,W,1,10,1,10.46,M,-40.66,M,*6A
1:30:00, $GPGGA,13001,3258.67071,N,12401.41343,W,1,10,1,10.7,M,-40.66,M,*6E
1:30:30, $GPGGA,13031,3258.7419,N,12401.46482,W,1,10,1,11.41,M,-40.66,M,*6F
1:31:00, $GPGGA,13101,3258.81182,N,12401.51485,W,1,10,1,9.55,M,-40.66,M,*59
1:31:30, $GPGGA,13131,3258.88288,N,12401.56613,W,1,10,1,8.78,M,-40.66,M,*5E
1:32:00, $GPGGA,13201,3258.95438,N,12401.61742,W,1,10,1,10.46,M,-40.66,M,*6A
1:32:30, $GPGGA,13231,3259.02658,N,12401.67107,W,1,10,1,8.5,M,-40.66,M,*5D
1:33:00, $GPGGA,13301,3259.09721,N,12401.72159,W,1,10,1,10.22,M,-40.66,M,*68
1:33:30, $GPGGA,13331,3259.16864,N,12401.77299,W,1,10,1,8.77,M,-40.61,M,*5F
1:34:00, $GPGGA,13401,3259.23973,N,12401.82459,W,1,10,1,9.55,M,-40.61,M,*5B
1:34:30, $GPGGA,13431,3259.30934,N,12401.87491,W,1,10,1,10.62,M,-40.61,M,*64
1:35:00, $GPGGA,13501,3259.37944,N,12401.9261,W,1,10,1,10.42,M,-40.61,M,*6B
1:35:30, $GPGGA,13531,3259.45078,N,12401.97682,W,1,10,1,8.92,M,-40.61,M,*51
1:36:00, $GPGGA,13601,3259.52161,N,12402.02717,W,1,10,1,9.96,M,-40.61,M,*59
1:36:30, $GPGGA,13631,3259.5925,N,12402.07953,W,1,10,1,9.97,M,-40.61,M,*5A
1:37:00, $GPGGA,13701,3259.66262,N,12402.13018,W,1,10,1,9.49,M,-40.61,M,*55
1:37:30, $GPGGA,13731,3259.73217,N,12402.18041,W,1,10,1,7.52,M,-40.61,M,*53
1:38:00, $GPGGA,13801,3259.79958,N,12402.22906,W,1,10,1,11.51,M,-40.61,M,*62
1:38:30, $GPGGA,13831,3259.86982,N,12402.27906,W,1,10,1,9.47,M,-40.61,M,*5D
1:39:00, $GPGGA,13901,3259.94084,N,12402.33066,W,1,10,1,9.53,M,-40.61,M,*5C
1:39:30, $GPGGA,13931,3300.01219,N,12402.38082,W,1,10,1,10.21,M,-40.61,M,*64
1:40:00, $GPGGA,14001,3300.08438,N,12402.43121,W,1,10,1,11.68,M,-40.61,M,*6D
1:40:30, $GPGGA,14031,3300.15631,N,12402.48229,W,1,10,1,10.24,M,-40.61,M,*60
1:41:00, $GPGGA,14101,3300.22763,N,12402.53249,W,1,11,0.9,8.97,M,-40.61,M,*54
1:41:30, $GPGGA,14131,3300.29885,N,12402.58464,W,1,11,0.9,11.36,M,-40.61,M,*6A
1:42:00, $GPGGA,14201,3300.37,N,12402.63471,W,1,11,0.9,8.56,M,-40.61,M,*52
1:42:30, $GPGGA,14231,3300.43858,N,12402.6865,W,1,11,0.9,9.73,M,-40.61,M,*5B
1:43:00, $GPGGA,14301,3300.50569,N,12402.73673,W,1,11,0.9,8.75,M,-40.61,M,*58
1:43:30, $GPGGA,14331,3300.57254,N,12402.78628,W,1,11,0.9,9.17,M,-40.61,M,*55
1:44:00, $GPGGA,14401,3300.64231,N,12402.83668,W,1,11,0.9,10.16,M,-40.61,M,*6B
1:44:30, $GPGGA,14431,3300.71088,N,12402.88797,W,1,11,0.9,11.08,M,-40.61,M,*68
1:45:00, $GPGGA,14501,3300.78045,N,12402.9396,W,1,11,0.9,10.1,M,-40.61,M,*66
1:45:30, $GPGGA,14531,3300.85209,N,12402.9917,W,1,11,0.9,9.51,M,-40.61,M,*53
1:46:00, $GPGGA,14601,3300.92364,N,12403.04414,W,1,11,0.9,10.74,M,-40.61,M,*62
1:46:30, $GPGGA,14631,3300.99195,N,12403.09466,W,1,11,0.9,9.39,M,-40.61,M,*5F
1:47:00, $GPGGA,14701,3301.06074,N,12403.14363,W,1,11,0.9,10.75,M,-40.61,M,*6A
1:47:30, $GPGGA,14731,3301.13163,N,12403.19352,W,1,11,0.9,10.75,M,-40.61,M,*65
1:48:00, $GPGGA,14801,3301.20222,N,12403.24453,W,1,11,0.9,11.79,M,-40.61,M,*6A
1:48:30, $GPGGA,14831,3301.27366,N,12403.29541,W,1,11,0.9,10.12,M,-40.61,M,*6C
1:49:00, $GPGGA,14901,3301.34376,N,12403.34652,W,1,11,0.9,9.95,M,-40.61,M,*57
1:49:30, $GPGGA,14931,3301.41127,N,12403.39729,W,1,11,0.9,9.14,M,-40.61,M,*59
1:50:00, $GPGGA,15001,3301.48038,N,12403.44614,W,1,11,0.9,9.54,M,-40.61,M,*55
1:50:30, $GPGGA,15031,3301.5463,N,12403.49471,W,1,11,0.9,11.18,M,-40.61,M,*68
1:51:00, $GPGGA,15101,3301.61424,N,12403.544,W,1,11,0.9,9.95,M,-40.61,M,*5D
1:51:30, $GPGGA,15131,3301.68301,N,12403.5946,W,1,11,0.9,10.28,M,-40.61,M,*62
1:52:00, $GPGGA,15201,3301.75295,N,12403.64503,W,1,11,0.9,10.37,M,-40.61,M,*66
1:52:30, $GPGGA,15231,3301.8229,N,12403.69693,W,1,11,0.9,9.8,M,-40.61,M,*5B
1:53:00, $GPGGA,15301,3301.89408,N,12403.74882,W,1,11,0.9,9.72,M,-40.61,M,*5A
1:53:30, $GPGGA,15331,3301.96527,N,12403.80144,W,1,11,0.9,9.54,M,-40.61,M,*57
1:54:00, $GPGGA,15400,3302.03272,N,12403.84952,W,1,11,0.9,9.47,M,-40.61,M,*53
1:54:30, $GPGGA,15430,3302.10405,N,12403.9012,W,1,11,0.9,10.86,M,-40.61,M,*69
1:55:00, $GPGGA,15500,3302.17607,N,12403.95384,W,1,11,0.9,9.25,M,-40.61,M,*54
1:55:30, $GPGGA,15530,3302.24815,N,12404.0058,W,1,11,0.9,8.94,M,-40.61,M,*58
1:56:00, $GPGGA,15600,3302.31873,N,12404.05696,W,1,10,1,9.06,M,-40.61,M,*5E
1:56:30, $GPGGA,15630,3302.38937,N,12404.10671,W,1,10,1,11.34,M,-40.61,M,*60
1:57:00, $GPGGA,15700,3302.45954,N,12404.15592,W,1,10,1,10.17,M,-40.61,M,*66
1:57:30, $GPGGA,15730,3302.53054,N,12404.20602,W,1,10,1,9.89,M,-40.61,M,*58
1:58:00, $GPGGA,15800,3302.602,N,12404.25606,W,1,10,1,9.24,M,-40.61,M,*51
1:58:30, $GPGGA,15830,3302.67305,N,12404.30565,W,1,10,1,8.78,M,-40.61,M,*5B
1:59:00, $GPGGA,15900,3302.74269,N,12404.3546,W,1,10,1,10.97,M,-40.61,M,*69
1:59:30, $GPGGA,15930,3302.81263,N,12404.40356,W,1,10,1,9.6,M,-40.61,M,*5A
2:00:00, $GPGGA,20000,3302.88363,N,12404.45341,W,1,10,1,8.47,M,-40.61,M,*59
2:00:30, $GPGGA,20030,3302.95357,N,12404.50166,W,1,10,1,9.49,M,-40.61,M,*5D
2:01:00, $GPGGA,20100,3303.02386,N,12404.55246,W,1,11,0.9,7.7,M,-40.61,M,*55
2:01:30, $GPGGA,20130,3303.09448,N,12404.60034,W,1,10,1,9.44,M,-40.61,M,*59
2:02:00, $GPGGA,20200,3303.16484,N,12404.65031,W,1,10,1,8.62,M,-40.61,M,*52
2:02:30, $GPGGA,20230,3303.23669,N,12404.69996,W,1,10,1,10.26,M,-40.61,M,*67
2:03:00, $GPGGA,20300,3303.30857,N,12404.75117,W,1,10,1,8.83,M,-40.61,M,*5E
2:03:30, $GPGGA,20330,3303.3779,N,12404.80009,W,1,10,1,8.95,M,-40.61,M,*5D
2:04:00, $GPGGA,20400,3303.44593,N,12404.84884,W,1,10,1,10.12,M,-40.61,M,*63
2:04:30, $GPGGA,20430,3303.51664,N,12404.89616,W,1,10,1,10.75,M,-40.61,M,*66
2:05:00, $GPGGA,20500,3303.5861,N,12404.94561,W,1,10,1,8.44,M,-40.61,M,*5A
2:05:30, $GPGGA,20530,3303.65634,N,12404.99519,W,1,11,0.9,7.47,M,-40.61,M,*56
2:06:00, $GPGGA,20600,3303.72649,N,12405.04469,W,1,10,1,9.2,M,-40.61,M,*5F
2:06:30, $GPGGA,20630,3303.79748,N,12405.09363,W,1,10,1,9.54,M,-40.61,M,*54
2:07:00, $GPGGA,20700,3303.86739,N,12405.14231,W,1,10,1,10.76,M,-40.61,M,*62
2:07:30, $GPGGA,20730,3303.93817,N,12405.19063,W,1,10,1,9.88,M,-40.61,M,*57
2:08:00, $GPGGA,20800,3304.00813,N,12405.23863,W,1,10,1,9.63,M,-40.61,M,*56
2:08:30, $GPGGA,20830,3304.07755,N,12405.28808,W,1,10,1,10.43,M,-40.61,M,*63
2:09:00, $GPGGA,20900,3304.14825,N,12405.33629,W,1,10,1,10.25,M,-40.61,M,*6C
2:09:30, $GPGGA,20930,3304.21897,N,12405.38432,W,1,10,1,11.55,M,-40.61,M,*65
2:10:00, $GPGGA,21000,3304.28651,N,12405.43432,W,1,10,1,9.66,M,-40.61,M,*56
2:10:30, $GPGGA,21030,3304.35125,N,12405.47867,W,1,9,1,11.14,M,-40.61,M,*61
2:11:00, $GPGGA,21100,3304.41882,N,12405.52617,W,1,9,1,11.31,M,-40.61,M,*6E
2:11:30, $GPGGA,21130,3304.48988,N,12405.57504,W,1,9,1,7.35,M,-40.61,M,*58
2:12:00, $GPGGA,21200,3304.55932,N,12405.62662,W,1,9,1,7.45,M,-40.61,M,*57
2:12:30, $GPGGA,21230,3304.62747,N,12405.67718,W,1,9,1,7.76,M,-40.61,M,*55
2:13:00, $GPGGA,21300,3304.6955,N,12405.72591,W,1,9,1,7.23,M,-40.61,M,*5F
2:13:30, $GPGGA,21330,3304.76304,N,12405.77633,W,1,9,1,9.21,M,-40.61,M,*57
2:14:00, $GPGGA,21401,3304.83518,N,12405.83007,W,1,9,1,8.51,M,-40.61,M,*5F
2:14:30, $GPGGA,21431,3304.90313,N,12405.88255,W,1,9,1,8.21,M,-40.61,M,*5A
2:15:00, $GPGGA,21501,3304.97256,N,12405.93256,W,1,9,1,9.01,M,-40.61,M,*55
2:15:30, $GPGGA,21531,3305.04192,N,12405.986,W,1,8,1.2,8.2,M,-40.61,M,*5B
2:16:00, $GPGGA,21601,3305.11043,N,12406.03756,W,1,8,1.2,7.63,M,-40.61,M,*59
2:16:30, $GPGGA,21631,3305.17978,N,12406.09012,W,1,8,1.2,7.7,M,-40.61,M,*52
2:17:00, $GPGGA,21701,3305.25033,N,12406.14216,W,1,8,1.2,7.3,M,-40.61,M,*59
2:17:30, $GPGGA,21731,3305.3207,N,12406.19452,W,1,8,1.2,6.61,M,-40.61,M,*55
2:18:00, $GPGGA,21801,3305.39009,N,12406.2462,W,1,8,1.2,8.47,M,-40.61,M,*5F
2:18:30, $GPGGA,21831,3305.45999,N,12406.29724,W,1,8,1.2,7.06,M,-40.61,M,*55
2:19:00, $GPGGA,21901,3305.52857,N,12406.3481,W,1,8,1.2,8.15,M,-40.61,M,*5B
2:19:30, $GPGGA,21931,3305.59709,N,12406.39922,W,1,8,1.2,7.58,M,-40.61,M,*5C
2:20:00, $GPGGA,22001,3305.66529,N,12406.44988,W,1,8,1.2,8.46,M,-40.61,M,*53
2:20:30, $GPGGA,22031,3305.73492,N,12406.50019,W,1,8,1.2,7.65,M,-40.61,M,*5F
2:21:00, $GPGGA,22101,3305.80476,N,12406.55319,W,1,8,1.2,7.48,M,-40.61,M,*52
2:21:30, $GPGGA,22131,3305.87419,N,12406.60447,W,1,8,1.2,8.04,M,-40.61,M,*52
2:22:00, $GPGGA,22201,3305.9443,N,12406.65545,W,1,8,1.2,5.83,M,-40.61,M,*5F
2:22:30, $GPGGA,22231,3306.01202,N,12406.707,W,1,8,1.2,8.03,M,-40.61,M,*56
2:23:00, $GPGGA,22301,3306.08201,N,12406.7571,W,1,8,1.2,7.34,M,-40.61,M,*51
2:23:30, $GPGGA,22331,3306.15188,N,12406.80844,W,1,8,1.2,8.37,M,-40.61,M,*54
2:24:00, $GPGGA,22401,3306.22178,N,12406.85992,W,1,8,1.2,7.47,M,-40.61,M,*5C
2:24:30, $GPGGA,22431,3306.29296,N,12406.91141,W,1,8,1.2,6.1,M,-40.61,M,*57
2:25:00, $GPGGA,22501,3306.36238,N,12406.9626,W,1,8,1.2,7.89,M,-40.61,M,*59
2:25:30, $GPGGA,22531,3306.4324,N,12407.01478,W,1,8,1.2,6.95,M,-40.61,M,*5B
2:26:00, $GPGGA,22601,3306.50216,N,12407.06418,W,1,8,1.2,7.49,M,-40.61,M,*5B
2:26:30, $GPGGA,22631,3306.5717,N,12407.11759,W,1,8,1.2,7.54,M,-40.61,M,*50
2:27:00, $GPGGA,22701,3306.64287,N,12407.16936,W,1,8,1.2,6.51,M,-40.61,M,*5D
2:27:30, $GPGGA,22731,3306.71409,N,12407.22005,W,1,8,1.2,7.76,M,-40.61,M,*50
2:28:00, $GPGGA,22801,3306.78548,N,12407.27216,W,1,8,1.2,8.61,M,-40.61,M,*5D
2:28:30, $GPGGA,22831,3306.85658,N,12407.32276,W,1,8,1.2,9.41,M,-40.61,M,*5F
2:29:00, $GPGGA,22901,3306.92592,N,12407.37547,W,1,8,1.2,8.82,M,-40.61,M,*50
2:29:30, $GPGGA,22931,3306.99595,N,12407.42554,W,1,8,1.2,8.17,M,-40.61,M,*53
2:30:00, $GPGGA,23001,3307.06487,N,12407.47649,W,1,8,1.2,8.22,M,-40.61,M,*51
2:30:30, $GPGGA,23031,3307.13407,N,12407.52838,W,1,8,1.2,7.76,M,-40.61,M,*5C
2:31:00, $GPGGA,23101,3307.20317,N,12407.57831,W,1,8,1.2,8.38,M,-40.61,M,*51
2:31:30, $GPGGA,23131,3307.27344,N,12407.62995,W,1,8,1.2,8.51,M,-40.61,M,*55
2:32:00, $GPGGA,23201,3307.34316,N,12407.68094,W,1,8,1.2,9.18,M,-40.61,M,*5E
2:32:30, $GPGGA,23231,3307.41259,N,12407.73055,W,1,8,1.2,7.57,M,-40.61,M,*57
2:33:00, $GPGGA,23301,3307.48002,N,12407.78013,W,1,8,1.2,8.22,M,-40.61,M,*54
2:33:30, $GPGGA,23331,3307.54768,N,12407.8306,W,1,8,1.2,9.55,M,-40.61,M,*50
2:34:00, $GPGGA,23401,3307.61794,N,12407.88089,W,1,8,1.2,7.81,M,-40.61,M,*5A